Change the Weather History Date:

Sunday, November 11, 2012

  Actual Average (KPWC) Record (KPWC)
Temperature  
Mean Temperature 32 °F -  
Max Temperature 46 °F 38 °F 64 °F (2005)
Min Temperature 19 °F 22 °F 8 °F (2006)
Degree Days  
Heating Degree Days 32    
Moisture  
Dew Point 24 °F    
Average Humidity 86    
Maximum Humidity 100    
Minimum Humidity 74    
Precipitation  
Precipitation 0.00 in - - ()
Sea Level Pressure  
Sea Level Pressure 29.66 in    
Wind  
Wind Speed 10 mph (WSW)    
Max Wind Speed 15 mph    
Max Gust Speed 21 mph    
Visibility 9 miles    
Events Snow    
Averages and records for this station are not official NWS values.
T = Trace of Precipitation, MM = Missing Value Source: NWS Daily Summary

Daily Weather History Graph

Daily Weather History Graph

Search for Another Location

Airport or City:

Trip Planner

Search our weather history database for the weather conditions in past years. The results will help you decide how hot, cold, wet, or windy it might be!

Date:

Astronomy

Nov. 11, 2012 Rise Set
Actual Time 7:15 AM CST 4:46 PM CST
Civil Twilight 6:42 AM CST 5:18 PM CST
Nautical Twilight 6:05 AM CST 5:55 PM CST
Astronomical Twilight 5:29 AM CST 6:31 PM CST
Moon 4:21 AM CST (11/11) 3:16 PM CST (11/11)
Length of Visible Light 10h 36m
Length of Day
9h 31m
Waning Crescent, 7% of the Moon is Illuminated
Nov 11
Waning Crescent
Nov 13
New
Nov 20
First Quarter
Nov 28
Full
Dec 6
Last Quarter

Hourly Weather History & Observations

Time (CST) Temp. Windchill Dew Point Humidity Pressure Visibility Wind Dir Wind Speed Gust Speed Precip Events Conditions
12:16 AM 44.6 °F 39.7 °F 44.6 °F 100% 29.41 in 5.0 mi SSE 9.2 mph - N/A   Mostly Cloudy
12:36 AM 46.4 °F 42.9 °F 44.6 °F 93% 29.40 in 5.0 mi SSE 6.9 mph - N/A   Mostly Cloudy
12:56 AM 46.4 °F 42.4 °F 46.4 °F 100% 29.42 in 5.0 mi SSE 8.1 mph - N/A   Overcast
1:16 AM 46.4 °F 42.9 °F 46.4 °F 100% 29.42 in 2.5 mi South 6.9 mph 16.1 mph N/A   Overcast
1:36 AM 46.4 °F 41.5 °F 46.4 °F 100% 29.41 in 2.5 mi SSW 10.4 mph - N/A   Overcast
1:56 AM 44.6 °F 40.7 °F 44.6 °F 100% 29.43 in 4.0 mi SW 6.9 mph - N/A   Overcast
2:16 AM 44.6 °F 38.8 °F 44.6 °F 100% 29.45 in 5.0 mi WSW 11.5 mph 18.4 mph N/A   Overcast
2:36 AM 42.8 °F 36.6 °F 42.8 °F 100% 29.47 in 5.0 mi SW 11.5 mph 17.3 mph N/A   Overcast
2:56 AM 41.0 °F 35.2 °F 41.0 °F 100% 29.48 in 7.0 mi SW 9.2 mph 17.3 mph N/A   Overcast
3:16 AM 39.2 °F 30.8 °F 37.4 °F 93% 29.50 in 10.0 mi WSW 15.0 mph 19.6 mph N/A   Overcast
3:36 AM 35.6 °F 27.5 °F 35.6 °F 100% 29.51 in 10.0 mi WSW 11.5 mph 18.4 mph N/A   Overcast
3:56 AM 35.6 °F 28.0 °F 35.6 °F 100% 29.50 in 10.0 mi WSW 10.4 mph - N/A   Overcast
4:16 AM 33.8 °F 25.3 °F 33.8 °F 100% 29.53 in 10.0 mi SW 11.5 mph - N/A   Overcast
4:36 AM 33.8 °F 24.8 °F 33.8 °F 100% 29.55 in 10.0 mi WSW 12.7 mph - N/A   Overcast
4:56 AM 33.8 °F 25.8 °F 33.8 °F 100% 29.55 in 10.0 mi WSW 10.4 mph 17.3 mph N/A   Overcast
5:16 AM 32.0 °F 23.6 °F 32.0 °F 100% 29.57 in 10.0 mi WSW 10.4 mph 17.3 mph N/A   Overcast
5:36 AM 32.0 °F 24.8 °F 30.2 °F 93% 29.58 in 10.0 mi WSW 8.1 mph - N/A   Overcast
5:56 AM 30.2 °F 20.2 °F 30.2 °F 100% 29.60 in 10.0 mi West 12.7 mph 18.4 mph N/A   Overcast
6:16 AM 30.2 °F 21.3 °F 28.4 °F 93% 29.60 in 10.0 mi WSW 10.4 mph 20.7 mph N/A   Overcast
6:36 AM 30.2 °F 20.2 °F 28.4 °F 93% 29.61 in 10.0 mi West 12.7 mph 19.6 mph N/A   Overcast
6:56 AM 30.2 °F 21.9 °F 26.6 °F 86% 29.62 in 10.0 mi WSW 9.2 mph - N/A   Overcast
7:36 AM 28.4 °F 18.5 °F 26.6 °F 93% 29.63 in 10.0 mi West 11.5 mph - N/A   Overcast
7:56 AM 28.4 °F 19.7 °F 26.6 °F 93% 29.65 in 10.0 mi West 9.2 mph - N/A   Overcast
8:16 AM 28.4 °F 19.1 °F 24.8 °F 86% 29.66 in 10.0 mi West 10.4 mph 16.1 mph N/A   Overcast
8:36 AM 28.4 °F 18.5 °F 24.8 °F 86% 29.66 in 10.0 mi West 11.5 mph 16.1 mph N/A   Overcast
8:56 AM 28.4 °F 19.1 °F 24.8 °F 86% 29.66 in 10.0 mi West 10.4 mph - N/A   Overcast
9:36 AM 26.6 °F 15.7 °F 24.8 °F 93% 29.69 in 10.0 mi West 12.7 mph - N/A   Overcast
9:56 AM 26.6 °F 16.8 °F 23.0 °F 86% 29.69 in 10.0 mi WSW 10.4 mph 18.4 mph N/A   Overcast
10:16 AM 26.6 °F 17.5 °F 21.2 °F 80% 29.71 in 10.0 mi West 9.2 mph - N/A   Overcast
10:36 AM 26.6 °F 16.8 °F 23.0 °F 86% 29.69 in 10.0 mi WSW 10.4 mph 16.1 mph N/A   Overcast
10:56 AM 26.6 °F 16.2 °F 21.2 °F 80% 29.68 in 10.0 mi West 11.5 mph - N/A   Overcast
11:16 AM 26.6 °F 17.5 °F 21.2 °F 80% 29.69 in 10.0 mi WSW 9.2 mph - N/A   Overcast
11:36 AM 26.6 °F 15.2 °F 21.2 °F 80% 29.70 in 10.0 mi WSW 13.8 mph 17.3 mph N/A   Overcast
12:16 PM 26.6 °F 17.5 °F 21.2 °F 80% 29.70 in 10.0 mi West 9.2 mph - N/A   Overcast
12:36 PM 26.6 °F 17.5 °F 21.2 °F 80% 29.71 in 10.0 mi West 9.2 mph 17.3 mph N/A   Overcast
12:57 PM 26.6 °F 15.2 °F 19.4 °F 74% 29.71 in 10.0 mi West 13.8 mph - N/A   Overcast
1:16 PM 24.8 °F 14.6 °F 19.4 °F 80% 29.70 in 10.0 mi West 10.4 mph 17.3 mph N/A   Overcast
1:36 PM 24.8 °F 15.3 °F 19.4 °F 80% 29.71 in 10.0 mi WSW 9.2 mph - N/A   Overcast
1:56 PM 24.8 °F 14.0 °F 19.4 °F 80% 29.72 in 10.0 mi WSW 11.5 mph - N/A   Overcast
2:16 PM 24.8 °F 14.6 °F 19.4 °F 80% 29.71 in 10.0 mi WSW 10.4 mph - N/A   Overcast
2:36 PM 24.8 °F 16.1 °F 17.6 °F 74% 29.71 in 10.0 mi WSW 8.1 mph - N/A   Overcast
2:57 PM 24.8 °F 15.3 °F 17.6 °F 74% 29.71 in 10.0 mi West 9.2 mph - N/A   Overcast
3:16 PM 24.8 °F 16.9 °F 17.6 °F 74% 29.71 in 10.0 mi WSW 6.9 mph - N/A   Overcast
3:36 PM 24.8 °F 16.9 °F 17.6 °F 74% 29.72 in 10.0 mi West 6.9 mph - N/A   Overcast
3:56 PM 23.0 °F 12.4 °F 17.6 °F 80% 29.72 in 10.0 mi WSW 10.4 mph - N/A   Overcast
4:16 PM 23.0 °F 13.9 °F 17.6 °F 80% 29.73 in 10.0 mi West 8.1 mph - N/A   Overcast
4:36 PM 21.2 °F 10.1 °F 15.8 °F 80% 29.73 in 10.0 mi West 10.4 mph - N/A Snow Light Snow
4:56 PM 21.2 °F 10.9 °F 15.8 °F 80% 29.74 in 10.0 mi West 9.2 mph - N/A Snow Light Snow
5:16 PM 21.2 °F 11.7 °F 15.8 °F 80% 29.74 in 10.0 mi West 8.1 mph - N/A Snow Light Snow
5:36 PM 21.2 °F 12.6 °F 17.6 °F 86% 29.75 in 7.0 mi West 6.9 mph - N/A Snow Light Snow
5:56 PM 21.2 °F 12.6 °F 15.8 °F 80% 29.76 in 10.0 mi West 6.9 mph - N/A Snow Light Snow
6:16 PM 21.2 °F 10.1 °F 15.8 °F 80% 29.76 in 10.0 mi West 10.4 mph 17.3 mph N/A   Overcast
6:36 PM 21.2 °F 7.8 °F 14.0 °F 74% 29.77 in 10.0 mi West 15.0 mph 18.4 mph N/A   Overcast
6:56 PM 21.2 °F 10.9 °F 14.0 °F 74% 29.77 in 10.0 mi West 9.2 mph 13.8 mph N/A   Overcast
7:16 PM 21.2 °F 10.1 °F 14.0 °F 74% 29.77 in 10.0 mi WSW 10.4 mph 18.4 mph N/A Snow Light Snow
7:36 PM 21.2 °F 12.6 °F 15.8 °F 80% 29.77 in 7.0 mi West 6.9 mph 17.3 mph N/A Snow Light Snow
7:56 PM 21.2 °F 14.9 °F 15.8 °F 80% 29.77 in 7.0 mi WSW 4.6 mph - N/A Snow Light Snow
8:16 PM 21.2 °F 9.5 °F 15.8 °F 80% 29.76 in 10.0 mi SW 11.5 mph 16.1 mph N/A Snow Light Snow
8:36 PM 21.2 °F 9.5 °F 15.8 °F 80% 29.77 in 5.0 mi SW 11.5 mph 16.1 mph N/A Snow Light Snow
8:56 PM 21.2 °F 10.1 °F 15.8 °F 80% 29.77 in 10.0 mi WSW 10.4 mph 16.1 mph N/A Snow Light Snow
9:16 PM 19.4 °F 9.5 °F 15.8 °F 86% 29.77 in 7.0 mi SW 8.1 mph - N/A Snow Light Snow
9:36 PM 19.4 °F 7.9 °F 15.8 °F 86% 29.78 in 7.0 mi SW 10.4 mph - N/A Snow Light Snow
9:56 PM 19.4 °F 9.5 °F 15.8 °F 86% 29.78 in 4.0 mi SW 8.1 mph 17.3 mph N/A Snow Light Snow
10:16 PM 19.4 °F 7.9 °F 14.0 °F 80% 29.78 in 7.0 mi SW 10.4 mph 17.3 mph N/A Snow Light Snow
10:36 PM 19.4 °F 7.2 °F 14.0 °F 80% 29.78 in 10.0 mi WSW 11.5 mph - N/A Snow Light Snow
10:56 PM 19.4 °F 7.2 °F 14.0 °F 80% 29.77 in 7.0 mi SW 11.5 mph 18.4 mph N/A Snow Light Snow
11:16 PM 19.4 °F 6.6 °F 14.0 °F 80% 29.77 in 7.0 mi WSW 12.7 mph 19.6 mph N/A Snow Light Snow
11:36 PM 19.4 °F 7.2 °F 14.0 °F 80% 29.77 in 7.0 mi SW 11.5 mph 18.4 mph N/A Snow Light Snow
11:56 PM 19.4 °F 8.6 °F 14.0 °F 80% 29.77 in 7.0 mi SW 9.2 mph 19.6 mph N/A Snow Light Snow